Theta_e
291 291 292 296 297 296 296 297 298 299 299 299 299 298 300 300 299 292 288 290 286 282 285 288 287 285 285 285 285 285 288 286 286 285 284 283 272 278 275 279 278 276 275 273 268 277 276 282 283 285 288 284 286 286
291 292 292 295 296 296 296 297 298 299 299 299 298 298 298 299 298 294 287 290 290 283 285 289 289 290 288 287 286 285 285 286 289 286 285 284 280 277 275 272 282 278 282 278 282 281 284 282 284 285 285 286 285 287
291 292 294 295 296 296 296 297 298 298 298 298 297 297 299 298 298 293 287 286 285 283 284 284 283 288 290 289 291 285 285 287 285 288 285 280 276 278 274 273 278 283 284 281 282 282 282 283 283 284 284 283 284 285
293 292 293 295 296 296 297 297 298 297 297 297 297 298 298 298 297 293 288 288 283 277 278 281 286 284 287 288 291 292 290 290 288 287 284 283 280 283 277 278 278 283 284 279 278 282 282 282 284 284 284 284 284 285
293 293 293 293 295 296 296 295 295 293 296 297 297 297 298 297 296 291 289 290 287 281 274 279 283 285 285 289 290 291 289 286 285 284 283 280 282 281 278 278 275 285 284 283 278 284 284 283 284 285 284 283 283 283
292 293 293 293 294 295 295 296 295 294 296 297 297 296 294 293 289 284 283 286 292 285 278 274 280 281 284 286 286 285 286 284 284 284 282 282 283 281 276 269 279 284 287 288 288 288 286 285 284 284 284 283 282 282
293 293 292 294 295 295 295 295 295 295 296 296 296 296 295 294 288 279 278 286 292 286 276 270 271 281 283 283 283 284 284 282 283 281 281 281 281 281 274 274 280 286 288 288 289 288 286 287 286 283 283 282 280 278
292 292 293 295 294 295 295 295 296 295 295 294 294 293 292 292 288 283 287 290 288 278 274 267 268 276 282 278 279 281 280 280 279 279 280 279 280 278 276 278 280 281 282 282 283 282 285 283 282 280 279 279 280 277
291 291 291 291 292 292 293 292 292 292 291 290 290 289 282 276 275 276 290 286 282 279 268 263 266 268 280 279 279 278 279 274 279 277 278 278 273 274 275 277 277 275 277 279 277 277 278 278 276 275 276 276 275 274
290 290 290 290 289 289 289 289 289 288 288 287 279 271 267 274 286 283 273 270 271 268 269 264 262 269 278 275 274 274 274 271 271 274 278 273 270 272 269 268 269 270 271 272 275 275 274 273 273 272 271 270 270 270
290 289 289 289 288 288 288 288 288 286 283 270 264 265 274 281 272 265 263 263 260 262 265 267 264 267 276 271 269 274 268 267 266 269 270 270 268 270 268 265 264 266 267 266 269 269 269 269 270 270 267 264 263 262
289 289 288 288 288 288 288 288 286 275 266 270 271 269 266 264 262 263 259 259 259 259 261 266 269 271 270 274 271 268 265 264 263 265 267 261 268 261 260 261 260 260 261 261 262 262 263 263 262 263 261 260 259 260
288 288 288 287 287 287 286 286 285 284 275 266 264 260 262 260 259 256 254 258 257 258 260 263 271 273 270 271 265 266 264 263 265 263 264 264 261 257 256 257 258 257 258 258 257 258 258 259 259 257 257 256 256 256
288 287 286 286 285 286 285 284 283 276 266 260 256 257 255 252 255 253 254 254 260 261 261 263 269 272 271 268 266 263 262 264 258 261 262 258 252 251 254 254 254 254 254 254 253 254 255 255 256 255 253 253 253 253
287 286 285 284 284 284 283 281 278 262 260 257 257 253 252 254 253 253 253 255 258 258 260 262 268 271 271 269 269 263 262 258 261 262 257 254 252 252 251 251 250 251 251 251 251 251 252 252 252 252 250 249 249 251
285 282 280 283 283 283 281 270 260 256 252 253 252 252 249 251 253 251 250 253 258 259 260 262 263 264 266 264 264 262 260 259 261 250 249 251 248 249 248 248 249 248 248 249 250 250 251 250 249 248 248 248 249 247
281 269 281 281 280 278 276 259 257 249 249 249 248 239 243 247 249 247 249 256 259 256 260 264 265 267 264 262 262 257 259 254 247 247 247 247 246 246 244 245 246 246 246 248 248 249 249 248 248 248 249 248 246 246
269 274 282 280 271 268 256 254 252 252 248 246 250 248 242 245 249 249 250 254 255 257 257 261 261 266 259 257 256 251 250 248 249 250 250 248 245 244 244 244 245 244 244 245 245 245 244 245 246 248 246 248 248 247
278 277 280 279 270 258 257 256 254 250 248 244 245 248 246 247 250 254 252 253 255 257 256 255 257 258 254 250 247 246 243 241 243 247 246 243 244 242 242 243 244 244 244 243 243 244 243 243 245 245 246 245 246 247
277 279 278 276 270 259 254 254 253 252 249 252 247 248 248 249 251 250 248 250 252 250 251 249 247 248 248 248 248 245 244 245 242 243 244 246 245 242 243 243 244 243 243 243 244 246 244 245 243 243 242 243 243 246
270 270 272 264 259 257 254 252 252 251 251 251 251 251 251 249 246 245 245 250 252 248 248 245 245 244 242 241 241 240 244 245 243 243 243 243 244 243 244 242 240 239 240 240 240 242 243 242 244 244 241 244 243 244
262 271 260 264 261 258 256 256 253 254 253 251 253 252 248 247 246 247 250 250 248 246 248 248 249 248 246 243 241 240 240 238 237 240 243 243 243 244 243 241 242 243 242 241 240 241 243 243 243 243 242 245 246 245
264 264 258 256 257 255 252 256 252 250 251 250 250 251 250 248 246 249 249 247 247 249 245 245 244 242 243 240 237 240 238 238 240 239 240 241 241 240 241 242 240 240 243 245 241 240 242 245 245 245 244 244 243 244
259 249 249 248 249 247 247 247 247 246 246 245 245 246 245 240 243 247 248 243 245 240 240 241 239 242 240 238 239 241 240 238 238 239 239 238 241 244 241 243 240 241 244 244 242 242 242 242 244 243 243 241 241 241
255 246 246 244 242 245 244 244 243 246 242 237 243 244 243 237 245 245 246 246 241 240 240 236 236 239 241 239 240 240 238 241 241 242 243 242 239 239 241 242 244 245 243 240 242 241 241 239 240 240 241 239 241 243
245 239 242 237 240 244 239 243 240 239 236 239 240 237 234 240 246 248 246 244 241 241 241 241 242 240 240 243 242 241 243 241 241 243 245 244 245 245 246 247 246 248 244 247 243 242 242 242 241 241 242 243 244 243
246 242 237 235 236 236 238 235 233 236 239 242 239 239 240 245 246 249 244 242 244 243 241 240 242 243 244 244 243 243 241 240 244 245 242 242 244 246 247 246 246 247 242 242 242 242 242 243 243 243 243 245 244 243
238 235 242 238 236 232 239 234 237 242 241 236 237 243 245 248 249 248 248 244 239 236 236 237 238 241 243 245 245 241 243 237 237 240 243 246 246 247 247 247 248 252 243 243 244 243 242 243 243 244 244 244 246 246
236 231 233 239 235 236 238 241 241 237 236 235 240 242 244 244 242 240 242 238 232 236 239 242 243 233 236 239 240 241 241 238 240 243 243 247 244 248 243 244 243 243 244 244 248 251 247 245 245 246 246 246 247 248
236 228 236 234 239 243 240 235 235 230 229 231 230 236 238 239 240 236 235 234 239 243 242 239 237 236 242 238 243 244 241 241 243 247 246 249 249 244 239 241 242 244 244 242 244 246 250 250 249 245 244 245 246 247
230 229 235 233 237 235 231 226 224 225 226 226 224 231 235 235 237 239 239 240 240 235 237 243 244 240 240 241 239 239 249 244 243 244 246 248 248 248 248 248 248 246 246 245 245 245 245 245 245 245 245 245 246 246
232 233 237 241 241 232 228 229 228 229 228 229 231 225 231 233 239 247 243 237 237 240 244 243 242 249 247 248 246 246 249 251 247 247 244 247 247 248 249 249 248 246 245 246 245 245 245 243 245 245 246 246 246 246
230 228 228 233 238 240 235 234 235 237 233 232 234 232 231 235 244 249 244 243 249 249 250 250 251 251 249 249 249 250 250 249 250 253 255 254 251 251 251 250 249 247 246 246 247 247 246 245 245 246 246 246 246 247
Wind_Speed
2 3 6 10 15 12 9 9 9 11 13 14 9 6 6 8 6 4 1 3 3 3 1 4 4 2 2 2 5 5 6 1 2 5 4 4 4 8 5 7 9 9 8 5 4 9 17 4 4 16 9 5 4 2
3 4 2 8 10 9 7 8 12 12 14 13 10 8 5 7 5 4 3 2 3 6 2 4 4 3 4 1 1 2 1 4 6 5 3 4 3 3 6 4 2 4 8 10 14 10 2 3 2 3 1 5 2 4
3 1 7 9 9 10 7 6 11 13 14 13 10 7 8 7 6 5 3 3 4 3 2 2 4 4 2 3 3 2 1 2 1 0 5 3 5 4 5 5 5 3 2 5 5 1 1 5 2 3 5 3 5 5
7 4 7 9 11 10 12 12 14 11 9 14 12 10 9 9 9 8 5 3 3 3 4 3 3 4 10 3 1 4 4 3 3 3 4 4 3 2 2 2 3 4 6 6 1 2 3 3 3 5 5 5 8 7
8 7 7 7 10 11 12 11 12 11 4 16 14 13 14 15 19 11 5 4 3 3 4 2 3 5 9 1 8 5 6 3 2 3 3 3 2 4 2 1 1 4 6 5 4 4 4 1 2 2 6 5 5 7
9 7 5 8 9 12 11 12 13 11 12 16 17 15 11 8 4 5 4 4 6 2 5 3 2 4 5 7 12 8 4 4 3 3 3 2 2 3 4 2 3 1 2 3 6 6 8 6 5 3 7 6 7 8
26 16 3 15 19 20 15 13 15 8 16 20 17 17 19 21 8 6 3 3 9 1 4 3 3 4 4 3 3 4 5 4 3 2 3 2 2 4 2 2 2 5 4 6 6 7 6 3 5 6 8 7 7 6
31 32 28 30 25 25 23 19 24 22 23 22 20 18 16 15 9 5 6 12 4 5 5 4 2 2 6 3 3 2 3 2 5 2 2 2 2 2 1 1 4 4 6 6 4 4 5 8 6 5 4 3 8 8
28 28 28 27 26 25 23 20 18 17 16 12 12 11 7 9 5 4 17 8 4 5 4 3 4 2 4 2 2 3 2 4 1 2 1 2 2 3 4 4 7 10 5 2 3 6 8 8 7 5 5 7 7 4
24 25 24 23 22 20 19 17 15 14 12 10 9 7 5 3 13 9 9 7 8 6 5 3 1 0 2 2 2 2 3 2 2 1 2 3 2 7 8 9 8 10 10 8 4 4 5 6 6 5 7 5 5 4
22 22 23 22 22 21 19 16 13 8 14 6 5 2 3 11 5 5 4 6 4 6 4 1 3 1 3 3 2 3 2 2 3 3 3 1 2 4 7 10 10 11 11 11 9 8 8 6 4 4 5 6 5 5
20 23 24 24 23 23 23 23 17 8 2 4 5 2 4 7 5 8 3 4 5 1 6 3 3 1 2 2 4 3 4 3 2 2 4 1 1 5 6 8 10 11 10 10 10 10 10 10 8 5 5 5 5 4
20 24 23 22 21 21 21 17 15 11 5 5 8 8 6 6 10 6 2 5 4 4 4 5 2 2 3 3 4 3 5 3 1 3 4 4 4 5 5 6 5 10 9 9 9 7 7 7 8 7 5 4 5 5
24 22 21 20 19 18 18 17 14 7 9 7 5 6 5 5 2 3 3 3 2 3 4 3 4 2 1 3 3 6 2 3 4 0 6 1 2 3 4 5 5 6 7 7 7 6 7 7 5 5 5 4 5 5
24 21 20 18 18 17 17 19 17 8 6 5 5 2 3 2 1 2 2 2 3 3 3 2 3 1 1 3 3 4 4 2 5 5 1 1 3 3 3 4 5 5 6 5 5 4 5 5 4 3 3 4 3 4
16 17 12 17 19 19 15 13 9 5 7 6 9 4 2 3 4 4 3 2 2 5 3 1 2 4 3 3 3 4 6 6 4 1 1 1 2 2 2 3 3 3 3 4 3 3 3 4 4 4 5 3 5 3
19 3 10 11 12 15 23 8 6 10 6 6 3 1 2 2 3 3 1 3 4 3 2 2 0 1 2 3 1 2 4 2 3 1 1 3 2 2 3 3 2 3 3 4 4 4 4 4 4 4 5 5 5 4
5 6 16 13 7 7 6 7 6 6 7 1 4 4 2 2 2 2 2 2 3 3 2 1 3 1 3 5 4 1 1 2 1 1 0 1 2 2 2 4 4 3 3 3 3 3 3 2 2 1 3 4 5 3
11 10 20 15 8 7 6 7 5 5 1 2 2 1 1 2 3 2 2 3 2 2 2 2 1 1 1 1 1 2 2 1 2 2 2 3 3 2 4 4 4 3 4 3 2 2 3 4 4 2 3 2 3 4
9 21 19 18 9 6 7 5 3 5 2 2 2 3 1 2 2 2 3 3 3 3 6 4 1 1 1 1 2 2 3 2 1 3 3 2 2 2 3 2 3 4 4 3 3 2 3 3 2 3 2 2 2 4
12 10 15 9 5 8 6 3 4 2 1 2 2 2 2 3 3 4 4 3 4 3 1 3 3 3 3 3 1 1 3 2 3 4 3 3 2 2 3 3 2 2 2 2 2 3 2 3 3 3 2 4 3 4
3 11 4 7 5 4 5 2 2 2 3 2 2 1 3 3 3 3 4 4 2 3 2 2 1 1 2 3 4 5 3 2 1 3 3 2 3 3 3 2 3 4 4 4 3 4 4 4 4 4 3 4 4 4
7 6 6 7 7 8 2 4 5 6 4 4 3 3 3 3 2 5 2 1 3 1 1 2 2 1 3 3 3 5 5 4 3 4 4 4 4 4 4 5 4 4 5 4 3 3 4 4 4 4 3 3 3 3
12 10 8 6 6 1 4 6 3 4 4 5 4 4 5 3 6 3 1 3 4 2 1 2 0 3 2 2 2 4 4 4 2 4 3 2 4 5 4 5 3 5 6 4 3 3 3 4 4 3 3 3 3 3
9 11 7 8 4 6 8 7 7 6 3 3 4 4 4 4 3 3 2 4 2 2 2 0 0 2 3 3 3 4 3 4 3 4 4 5 2 4 4 4 6 7 4 3 4 4 4 3 3 3 4 3 6 7
10 6 5 2 4 4 0 4 4 2 1 5 3 3 3 3 3 4 4 4 4 4 4 4 4 1 3 6 4 2 4 4 4 3 4 5 5 4 4 5 6 7 3 5 3 4 5 3 4 6 7 8 8 7
6 4 3 0 2 3 2 1 1 2 1 1 3 5 4 3 4 5 3 3 3 4 3 3 4 4 4 4 4 5 3 4 6 5 2 3 5 5 7 7 9 7 3 5 5 6 6 6 6 7 8 7 7 7
3 2 0 3 1 0 3 1 1 2 3 2 2 1 4 7 6 4 5 1 2 1 2 3 4 5 5 6 4 3 4 2 4 5 7 9 10 8 10 9 10 12 5 5 7 6 7 8 8 8 8 10 11 6
2 2 1 2 2 1 4 5 4 3 2 3 3 4 5 5 4 3 3 1 1 2 3 4 4 1 4 5 6 6 4 3 2 4 6 6 4 5 5 5 5 5 5 5 11 13 11 10 11 11 13 11 11 10
3 1 2 1 0 3 3 3 3 2 1 1 2 5 4 6 6 2 1 1 2 5 4 3 2 1 4 1 5 7 4 7 8 7 5 7 6 3 3 4 5 6 5 6 8 9 12 11 10 7 7 8 8 10
0 2 2 1 4 3 3 2 1 1 2 1 1 3 5 7 8 5 5 4 4 1 1 6 5 5 5 5 5 3 7 4 8 11 10 8 8 8 8 8 7 6 6 7 8 8 9 9 9 11 12 14 15 13
2 2 1 3 5 2 2 3 1 1 2 2 3 1 5 4 6 5 4 5 2 3 9 5 4 7 7 7 4 5 9 7 5 8 11 9 10 11 10 8 7 7 8 9 10 10 11 13 12 13 14 17 17 16
1 0 1 3 5 5 4 4 3 5 1 3 4 3 4 4 8 5 2 7 6 4 5 6 7 6 6 8 9 8 9 9 12 14 17 17 18 16 10 8 8 9 10 11 11 11 14 16 16 17 17 18 18 18
Wind_Direction
321 263 258 180 126 131 144 144 157 156 157 151 141 117 100 104 74 92 132 21 112 102 15 350 48 46 83 303 144 166 117 299 74 116 163 167 127 201 124 168 178 149 149 180 81 215 258 177 71 171 215 305 129 128
133 271 142 108 132 130 157 150 144 151 149 134 128 120 112 89 69 78 86 358 20 76 47 25 71 27 68 307 105 345 38 137 155 132 142 114 164 156 147 202 235 179 181 171 181 203 238 192 340 32 131 148 143 115
138 174 105 107 116 118 121 148 141 149 143 134 124 114 114 86 75 91 89 6 48 88 78 27 24 352 350 2 286 148 19 126 146 318 134 140 131 123 163 231 103 232 197 144 102 7 149 165 70 25 12 78 81 89
142 128 115 121 120 122 109 103 112 88 141 133 124 113 103 93 87 88 72 340 65 102 100 15 348 5 311 304 37 45 93 58 78 28 86 118 130 139 192 170 137 210 136 147 57 66 91 60 61 121 84 76 83 60
126 129 124 126 134 132 116 107 108 63 148 134 123 108 100 101 101 91 81 45 49 123 145 111 294 346 314 66 107 73 74 34 34 89 65 102 117 138 68 17 238 192 162 165 179 159 123 77 19 68 96 91 83 105
81 83 139 152 141 129 127 110 125 102 112 120 111 104 102 99 73 58 35 8 9 25 104 106 273 327 328 22 69 45 32 44 23 72 103 118 95 92 117 179 264 265 87 137 144 117 106 114 90 70 91 81 74 80
56 15 99 135 109 95 95 115 97 114 159 119 102 89 84 79 71 75 133 296 325 31 84 68 14 331 309 327 30 48 35 47 17 51 41 74 84 66 98 154 159 158 108 82 105 108 89 93 108 77 92 87 81 74
68 60 75 87 92 94 93 95 99 92 86 85 87 83 76 74 62 42 1 357 14 84 62 93 307 1 358 14 57 338 83 54 15 32 21 61 54 92 105 244 51 52 77 81 71 36 105 116 92 77 65 66 76 53
72 72 71 70 72 75 76 71 74 77 77 72 73 72 53 35 37 293 323 350 34 80 96 77 119 223 337 33 21 22 38 63 311 80 38 53 331 60 4 34 67 22 36 62 47 58 71 85 86 58 63 56 93 74
74 68 65 66 65 64 66 64 61 57 49 47 40 42 19 327 316 333 3 23 16 348 29 78 327 350 20 6 44 56 22 69 93 358 335 59 105 93 48 41 40 24 23 357 84 71 46 55 58 57 61 44 44 35
75 70 68 65 62 56 50 42 37 42 43 38 50 77 245 331 43 31 41 61 326 20 5 354 184 140 326 90 121 5 138 10 87 256 121 42 310 97 32 38 24 22 33 36 48 64 53 48 53 80 68 43 35 24
82 76 69 63 60 56 51 45 46 55 125 150 134 76 22 33 33 73 358 339 50 218 323 347 323 301 312 53 89 341 106 40 196 263 82 288 148 49 29 25 25 22 27 38 31 47 46 49 31 57 53 35 17 9
92 74 65 60 56 54 50 48 59 97 84 33 45 46 43 313 43 75 357 328 15 334 350 344 345 332 355 54 57 83 76 195 231 57 210 218 96 52 20 9 29 25 27 38 34 30 34 47 47 43 52 22 356 11
89 76 70 59 51 46 46 46 46 61 62 66 71 27 75 348 53 166 180 209 283 307 333 308 276 315 297 59 152 89 246 60 51 112 234 127 73 339 14 20 24 8 16 31 25 17 30 25 24 35 31 5 355 8
86 72 61 52 44 36 35 41 43 47 67 69 57 47 49 250 267 264 267 328 318 287 301 327 260 278 345 96 68 103 50 263 205 223 217 47 19 356 23 17 9 9 4 15 2 1 11 10 11 344 358 350 351 340
85 62 41 45 42 30 24 38 31 68 54 59 38 65 322 51 334 10 356 326 352 325 288 199 303 32 347 102 79 211 121 209 242 129 275 21 12 4 341 337 345 324 334 335 335 339 339 3 350 318 318 355 351 340
58 36 14 25 35 43 32 64 45 44 91 50 7 24 142 113 196 249 244 313 329 343 33 321 80 267 27 52 347 171 193 233 203 234 212 192 184 253 288 298 320 329 333 332 335 350 327 319 331 3 4 324 322 308
40 346 26 23 41 46 32 41 76 64 59 328 76 282 248 224 275 306 272 292 342 354 344 40 323 255 171 159 274 241 8 321 248 235 229 213 214 265 282 294 309 305 315 305 291 290 287 334 342 285 278 303 302 304
41 31 24 24 60 85 62 16 52 91 224 221 270 320 184 265 264 280 282 300 237 294 317 8 63 134 249 27 256 288 273 224 266 303 289 277 198 244 301 302 300 301 306 296 314 295 281 272 248 268 285 317 298 295
29 26 18 31 49 70 55 2 54 81 74 267 49 355 189 198 279 347 336 348 3 43 34 37 203 269 201 248 200 212 231 212 128 343 306 285 235 300 308 296 285 293 297 311 317 295 320 322 272 262 274 254 284 296
24 346 6 43 42 60 87 6 36 132 237 92 258 62 296 15 26 9 337 319 52 41 51 224 232 246 234 241 224 223 262 188 210 188 219 285 269 256 277 272 264 281 244 293 286 286 264 255 264 280 277 285 258 257
308 4 40 11 68 51 79 15 116 265 67 242 21 28 35 17 347 345 296 41 67 229 194 211 236 243 263 260 237 204 221 184 248 275 278 297 292 324 312 276 357 311 300 261 246 259 278 271 282 284 288 292 295 293
16 24 46 12 67 39 308 353 57 358 55 323 1 32 6 344 285 326 57 252 257 238 201 233 245 226 247 300 307 267 214 196 238 236 249 239 248 252 257 258 200 227 275 275 206 234 270 291 300 303 298 312 326 316
31 46 37 39 23 1 346 14 20 23 27 25 22 352 340 299 323 41 146 260 247 318 269 231 138 322 330 329 283 257 238 177 247 291 229 233 270 274 222 246 232 227 229 256 242 261 275 275 301 307 311 315 301 284
66 356 30 2 357 29 23 3 348 28 18 340 3 339 335 348 23 17 255 275 295 267 253 250 207 207 206 264 284 272 222 170 195 249 257 200 233 313 288 250 248 239 189 195 242 230 254 274 283 285 284 274 282 290
68 318 49 212 297 57 348 8 4 330 353 339 273 282 10 43 35 273 243 233 232 216 210 194 192 225 265 213 231 255 247 182 160 226 259 190 203 218 266 295 310 299 194 205 160 218 249 258 267 275 276 271 259 262
61 334 336 288 122 122 55 38 89 103 338 274 289 351 26 31 271 256 279 225 217 223 206 186 169 190 229 253 242 246 238 189 208 225 251 225 224 209 224 242 249 240 183 189 199 201 226 251 256 254 263 272 246 236
130 32 49 302 350 255 151 155 191 235 242 194 94 292 182 194 238 238 214 279 216 306 270 244 220 223 245 254 261 281 287 261 286 284 273 258 243 235 227 233 243 248 220 208 215 214 226 242 250 259 262 267 279 257
48 321 88 328 321 248 217 188 224 238 178 117 162 265 252 239 248 241 259 208 148 63 313 296 287 312 266 253 248 237 222 157 113 295 286 279 314 290 198 212 224 225 228 237 244 238 230 231 238 244 249 251 258 263
331 96 59 50 98 260 259 159 230 258 260 200 279 301 283 270 253 233 216 205 229 234 228 228 246 140 266 296 298 299 221 192 199 199 219 252 234 230 204 220 230 232 219 217 244 255 260 269 275 278 274 261 254 258
66 50 29 156 252 247 244 286 324 346 17 313 297 197 259 300 304 241 213 219 217 183 324 272 260 207 220 229 213 270 293 221 211 223 236 258 267 264 260 252 243 233 226 228 236 242 250 253 248 255 257 257 257 252
6 96 86 303 291 295 35 36 330 319 314 345 267 288 298 330 279 278 193 137 116 239 235 217 233 261 210 233 236 237 248 269 235 229 231 238 246 250 253 250 241 226 226 235 238 242 239 239 252 253 257 260 260 258
62 197 204 324 316 333 343 358 5 322 293 276 261 205 230 214 248 278 257 216 219 209 228 223 230 249 244 241 244 254 242 249 255 256 257 251 249 252 255 249 242 236 237 243 248 247 249 248 251 254 255 256 260 262